Location: Владивосток
(43.1151°N, 131.8856°E)
Time: 06:44:27
(UTC+10:00)

EO-88 - Pass Details

Date: 02 July 2022
Orbit: 453 x 461 km, 97.3° (Epoch: 13 August)

Event Time Altitude Azimuth Distance (km) Brightness Sun altitude
Exits shadow 23:34:42 14° 237° (WSW) 1,414 ? -19.8°
Maximum altitude 23:36:12 17° 267° (W) 1,255 ? -20.0°
Drops below altitude 10° 23:38:34 10° 310° (NW) 1,631 ? -20.1°
Sets 23:41:10 0° 331° (NNW) 2,512 ? -20.3°
